| time (UTC) | temp C | wind direction | speed KPH | gust KPH | rain 1hr cm | rain 24hr cm | rain mn cm | humidity % | barometer mb |
| 20260509124509 | 10 | 201 | 6.4 | 0.0 | 0.00 | 0.00 | 0.00 | 69 | 997.3 |
| 20260509123012 | 10 | 221 | 6.4 | 0.0 | 0.00 | 0.00 | 0.00 | 69 | 997.4 |
| 20260509121504 | 10 | 189 | 4.8 | 0.0 | 0.00 | 0.00 | 0.00 | 69 | 997.6 |
| 20260509120004 | 10 | 124 | 6.4 | 0.0 | 0.00 | 0.00 | 0.00 | 67 | 997.6 |
| 20260509114501 | 10 | 165 | 6.4 | 0.0 | 0.00 | 0.00 | 0.00 | 67 | 997.9 |
| 20260509113002 | 10 | 207 | 4.8 | 0.0 | 0.00 | 0.00 | 0.00 | 67 | 997.8 |
| 20260509111612 | 10 | 128 | 4.8 | 0.0 | 0.00 | 0.00 | 0.00 | 67 | 997.9 |
| 20260509110058 | 10 | 181 | 6.4 | 0.0 | 0.00 | 0.00 | 0.00 | 66 | 998.4 |
| 20260509104610 | 10 | 259 | 4.8 | 0.0 | 0.00 | 0.00 | 0.00 | 66 | 998.6 |
| 20260509103110 | 10 | 252 | 3.2 | 0.0 | 0.00 | 0.00 | 0.00 | 64 | 998.6 |
| 20260509101556 | 9 | 150 | 1.6 | 0.0 | 0.00 | 0.00 | 0.00 | 62 | 998.3 |
| 20260509100051 | 9 | 137 | 1.6 | 0.0 | 0.00 | 0.00 | 0.00 | 61 | 998.6 |
| 20260509094548 | 9 | 130 | 3.2 | 0.0 | 0.00 | 0.00 | 0.00 | 58 | 998.8 |
| 20260509093047 | 9 | 114 | 3.2 | 0.0 | 0.00 | 0.00 | 0.00 | 55 | 999.4 |
| 20260509091545 | 9 | 104 | 3.2 | 0.0 | 0.00 | 0.00 | 0.00 | 47 | 999.6 |
| 20260509090051 | 9 | 236 | 3.2 | 0.0 | 0.00 | 0.00 | 0.00 | 45 | 1000.0 |
| 20260509084539 | 10 | 216 | 4.8 | 0.0 | 0.00 | 0.00 | 0.00 | 42 | 1000.4 |
| 20260509083036 | 10 | 204 | 0.0 | 0.0 | 0.00 | 0.00 | 0.00 | 38 | 1000.3 |
| 20260509081547 | 10 | 183 | 3.2 | 0.0 | 0.00 | 0.00 | 0.00 | 37 | 1000.4 |
| 20260509080034 | 10 | 172 | 3.2 | 0.0 | 0.00 | 0.00 | 0.00 | 36 | 1000.6 |
| 20260509074529 | 10 | 195 | 3.2 | 0.0 | 0.00 | 0.00 | 0.00 | 38 | 1000.9 |
| 20260509073041 | 10 | 181 | 3.2 | 0.0 | 0.00 | 0.00 | 0.00 | 38 | 1001.1 |
| 20260509071528 | 10 | 197 | 3.2 | 0.0 | 0.00 | 0.00 | 0.00 | 39 | 1001.4 |
| 20260509070037 | 10 | 229 | 3.2 | 0.0 | 0.00 | 0.00 | 0.00 | 38 | 1002.0 |
| 20260509064524 | 10 | 210 | 4.8 | 0.0 | 0.00 | 0.00 | 0.00 | 39 | 1002.1 |
| 20260509063042 | 10 | 210 | 3.2 | 0.0 | 0.00 | 0.00 | 0.00 | 40 | 1002.1 |
| 20260509061518 | 10 | 118 | 3.2 | 0.0 | 0.00 | 0.00 | 0.00 | 41 | 1002.2 |
| 20260509060020 | 10 | 185 | 1.6 | 0.0 | 0.00 | 0.00 | 0.00 | 42 | 1002.6 |
| 20260509054514 | 11 | 166 | 3.2 | 0.0 | 0.00 | 0.00 | 0.00 | 41 | 1002.6 |
| 20260509053020 | 11 | 247 | 3.2 | 0.0 | 0.00 | 0.00 | 0.00 | 44 | 1002.9 |
| 20260509051511 | 10 | 229 | 4.8 | 0.0 | 0.00 | 0.00 | 0.00 | 41 | 1003.2 |
| 20260509050009 | 10 | 220 | 1.6 | 0.0 | 0.00 | 0.00 | 0.00 | 40 | 1003.4 |
| 20260509044511 | 11 | 227 | 3.2 | 0.0 | 0.00 | 0.00 | 0.00 | 40 | 1003.5 |
| 20260509043005 | 11 | 248 | 3.2 | 0.0 | 0.00 | 0.00 | 0.00 | 39 | 1003.6 |
| 20260509041504 | 11 | 189 | 0.0 | 0.0 | 0.00 | 0.00 | 0.00 | 39 | 1003.7 |
| 20260509040002 | 11 | 195 | 0.0 | 0.0 | 0.00 | 0.00 | 0.00 | 38 | 1003.8 |
| 20260509034501 | 11 | 234 | 1.6 | 0.0 | 0.00 | 0.00 | 0.00 | 38 | 1004.1 |
| 20260509033100 | 11 | 231 | 1.6 | 0.0 | 0.00 | 0.00 | 0.00 | 38 | 1004.1 |
| 20260509031559 | 11 | 199 | 1.6 | 0.0 | 0.00 | 0.00 | 0.00 | 38 | 1004.3 |
| 20260509030058 | 11 | 224 | 1.6 | 0.0 | 0.00 | 0.00 | 0.00 | 37 | 1004.5 |
| 20260509024602 | 12 | 229 | 1.6 | 0.0 | 0.00 | 0.00 | 0.00 | 37 | 1004.6 |
| 20260509023100 | 12 | 234 | 1.6 | 0.0 | 0.00 | 0.00 | 0.00 | 37 | 1004.7 |
| 20260509021557 | 12 | 220 | 1.6 | 0.0 | 0.00 | 0.00 | 0.00 | 36 | 1004.7 |
| 20260509020059 | 12 | 248 | 3.2 | 0.0 | 0.00 | 0.00 | 0.00 | 36 | 1004.8 |
| 20260509014555 | 12 | 272 | 3.2 | 0.0 | 0.00 | 0.00 | 0.00 | 36 | 1004.7 |
| 20260509013058 | 12 | 214 | 1.6 | 0.0 | 0.00 | 0.00 | 0.00 | 36 | 1004.7 |
| 20260509011555 | 12 | 216 | 1.6 | 0.0 | 0.00 | 0.00 | 0.00 | 35 | 1004.6 |
| 20260509010054 | 13 | 256 | 4.8 | 0.0 | 0.00 | 0.00 | 0.00 | 35 | 1004.5 |
| 20260509004605 | 13 | 252 | 3.2 | 0.0 | 0.00 | 0.00 | 0.00 | 35 | 1004.4 |
| 20260509003052 | 13 | 265 | 4.8 | 0.0 | 0.00 | 0.00 | 0.00 | 33 | 1004.7 |
| 20260509001550 | 13 | 239 | 6.4 | 0.0 | 0.00 | 0.00 | 0.00 | 33 | 1004.5 |
| 20260509000049 | 13 | 245 | 3.2 | 0.0 | 0.00 | 0.00 | 0.00 | 33 | 1004.6 |
| 20260508234553 | 13 | 291 | 6.4 | 0.0 | 0.00 | 0.00 | 0.00 | 32 | 1004.8 |
| 20260508233051 | 13 | 291 | 6.4 | 0.0 | 0.00 | 0.00 | 0.00 | 32 | 1004.8 |
| 20260508231546 | 13 | 284 | 8.0 | 0.0 | 0.00 | 0.00 | 0.00 | 32 | 1004.9 |
| 20260508230046 | 13 | 280 | 9.7 | 0.0 | 0.00 | 0.00 | 0.00 | 31 | 1004.9 |
| 20260508224544 | 13 | 228 | 9.7 | 0.0 | 0.00 | 0.00 | 0.00 | 31 | 1004.9 |
| 20260508223044 | 13 | 243 | 8.0 | 0.0 | 0.00 | 0.00 | 0.00 | 32 | 1005.0 |
| 20260508221542 | 14 | 243 | 12.9 | 0.0 | 0.00 | 0.00 | 0.00 | 31 | 1005.2 |
| 20260508220041 | 14 | 225 | 11.3 | 0.0 | 0.00 | 0.00 | 0.00 | 28 | 1005.3 |
| 20260508214541 | 14 | 269 | 12.9 | 0.0 | 0.00 | 0.00 | 0.00 | 29 | 1005.3 |
| 20260508213040 | 15 | 264 | 11.3 | 0.0 | 0.00 | 0.00 | 0.00 | 28 | 1005.4 |
| 20260508211538 | 15 | 248 | 12.9 | 0.0 | 0.00 | 0.00 | 0.00 | 28 | 1005.5 |
| 20260508210036 | 14 | 275 | 14.5 | 0.0 | 0.00 | 0.00 | 0.00 | 29 | 1005.5 |
| 20260508204536 | 14 | 210 | 14.5 | 0.0 | 0.00 | 0.00 | 0.00 | 29 | 1005.5 |
| 20260508203039 | 15 | 277 | 12.9 | 0.0 | 0.00 | 0.00 | 0.00 | 29 | 1005.7 |
| 20260508201534 | 14 | 293 | 12.9 | 0.0 | 0.00 | 0.00 | 0.00 | 28 | 1005.7 |
| 20260508200034 | 14 | 271 | 16.1 | 0.0 | 0.00 | 0.00 | 0.00 | 27 | 1006.2 |
| 20260508194531 | 13 | 199 | 19.3 | 0.0 | 0.00 | 0.00 | 0.00 | 28 | 1006.3 |
| 20260508193030 | 14 | 240 | 12.9 | 0.0 | 0.00 | 0.00 | 0.00 | 29 | 1006.4 |
| 20260508191535 | 14 | 239 | 16.1 | 0.0 | 0.00 | 0.00 | 0.00 | 32 | 1006.5 |
| 20260508190034 | 13 | 258 | 19.3 | 0.0 | 0.00 | 0.00 | 0.00 | 29 | 1006.7 |
| 20260508184529 | 14 | 267 | 14.5 | 0.0 | 0.00 | 0.00 | 0.00 | 29 | 1006.8 |
| 20260508183028 | 14 | 253 | 11.3 | 0.0 | 0.00 | 0.00 | 0.00 | 28 | 1006.9 |
| 20260508181531 | 13 | 287 | 14.5 | 0.0 | 0.00 | 0.00 | 0.00 | 29 | 1007.2 |
| 20260508180019 | 13 | 310 | 12.9 | 0.0 | 0.00 | 0.00 | 0.00 | 30 | 1007.2 |
| 20260508174517 | 13 | 258 | 14.5 | 0.0 | 0.00 | 0.00 | 0.00 | 31 | 1007.5 |
| 20260508173015 | 12 | 246 | 16.1 | 0.0 | 0.00 | 0.00 | 0.00 | 31 | 1007.7 |
| 20260508171518 | 12 | 247 | 14.5 | 0.0 | 0.00 | 0.00 | 0.00 | 33 | 1007.8 |
| 20260508170012 | 11 | 278 | 14.5 | 0.0 | 0.00 | 0.00 | 0.00 | 34 | 1008.3 |
| 20260508164510 | 12 | 242 | 16.1 | 0.0 | 0.00 | 0.00 | 0.00 | 35 | 1008.3 |
| 20260508163013 | 12 | 285 | 14.5 | 0.0 | 0.00 | 0.00 | 0.00 | 35 | 1008.4 |
| 20260508161505 | 11 | 270 | 11.3 | 0.0 | 0.00 | 0.00 | 0.00 | 36 | 1008.6 |
| 20260508160005 | 11 | 240 | 11.3 | 0.0 | 0.00 | 0.00 | 0.00 | 36 | 1008.9 |
| 20260508154504 | 11 | 290 | 8.0 | 0.0 | 0.00 | 0.00 | 0.00 | 39 | 1008.9 |
| 20260508153002 | 10 | 275 | 14.5 | 0.0 | 0.00 | 0.00 | 0.00 | 37 | 1009.0 |
| 20260508151601 | 10 | 276 | 12.9 | 0.0 | 0.00 | 0.00 | 0.00 | 38 | 1009.0 |
| 20260508150057 | 10 | 285 | 9.7 | 0.0 | 0.00 | 0.00 | 0.00 | 41 | 1009.0 |
| 20260508144555 | 10 | 310 | 9.7 | 0.0 | 0.00 | 0.00 | 0.00 | 44 | 1009.2 |
| 20260508143054 | 9 | 306 | 12.9 | 0.0 | 0.00 | 0.00 | 0.00 | 44 | 1009.4 |
| 20260508141612 | 9 | 278 | 9.7 | 0.0 | 0.00 | 0.00 | 0.00 | 47 | 1009.4 |
| 20260508140046 | 8 | 252 | 11.3 | 0.0 | 0.00 | 0.00 | 0.00 | 52 | 1009.6 |
| 20260508134555 | 8 | 245 | 6.4 | 0.0 | 0.00 | 0.00 | 0.00 | 55 | 1009.6 |
| 20260508133040 | 7 | 289 | 9.7 | 0.0 | 0.00 | 0.00 | 0.00 | 61 | 1009.7 |
| 20260508131536 | 6 | 272 | 8.0 | 0.0 | 0.00 | 0.00 | 0.00 | 64 | 1009.9 |
| 20260508130033 | 6 | 283 | 6.4 | 0.0 | 0.00 | 0.00 | 0.00 | 68 | 1009.9 |